[[{"header":{"parameterUnit":"m.s-1","parameterCategory":1,"la1":30.2991,"la2":30.254,"lo1":-89.0895,"lo2":-89.0444,"dy":0.0017,"dx":0.0017,"nx":28,"ny":28,"refTime":"2023-07-20T21:00:00:Z","depth":0,"parameterNumber":2,"parameterNumberName":"U-component_of_WINDS"},"data":[0,0,0,0,0,0,0,0,0,0,0,0,0,0,0,0,0,0,0,0,0,0,0,0,0,0,0,0,0,0,0,0,0,0,0,0,0,0,0,0,0,0,0,0,0,0,0,0,0,0,0,0,0,0,0,0,0,0,1.0235,1.0235,0,1.0269,1.027,1.027,1.026,1.026,1.0259,1.0258,1.0293,1.0294,1.0296,0,0,0,0,0,0,0,0,0,0,0,0,0,1.0158,1.0159,1.0235,1.0235,1.0235,1.0269,1.027,1.027,1.0261,1.026,1.0259,1.0258,1.0292,1.0294,1.0296,0,0,0,0,0,0,0,0,0,0,0,0,0,1.0192,1.016,1.0235,1.0235,1.0235,1.0269,1.027,1.027,1.0261,1.026,1.0259,1.0258,1.0292,1.0294,1.0296,1.0332,0,0,1.0304,1.0305,0,0,0,0,0,0,0,0,1.019,1.0195,1.0234,1.0235,1.0235,1.0259,1.0255,1.0291,1.0261,1.0251,1.0258,1.0257,1.0283,1.0286,1.0294,1.0333,1.0335,1.0304,1.0305,1.0306,1.0307,0,0,0,0,0,0,0,1.0187,1.0193,1.0248,1.0235,1.0235,1.0232,1.0236,1.0262,1.0272,1.0252,1.0251,1.0255,1.0283,1.0292,1.0295,1.0335,1.0304,1.0306,1.0307,1.0308,1.0403,1.0404,0,0,0,0,0,0,1.0185,1.0191,1.0247,1.0249,1.021,1.0235,1.0239,1.0253,1.0272,1.0274,1.0256,1.0255,1.0289,1.0292,1.0296,1.0337,1.0306,1.0308,1.031,1.0402,1.0403,1.0404,0,0,0,0,0,0,1.0183,1.019,1.0246,1.022,1.0227,1.0237,1.0253,1.0254,1.0263,1.0275,1.0277,1.0264,1.0288,1.0293,1.0323,1.0338,1.0309,1.0312,1.04,1.0402,1.0404,1.0421,0,0,0,0,0,0,1.0181,1.019,1.0204,1.022,1.0228,1.0272,1.0254,1.0255,1.0268,1.0266,1.0283,1.0285,1.0287,1.0319,1.0325,1.0341,1.0313,1.0399,1.0401,1.0403,1.0419,1.0423,1.0426,0,0,0,0,0,1.0179,1.0208,1.0205,1.0211,1.0246,1.0273,1.0278,1.028,1.0269,1.0283,1.029,1.0284,1.0336,1.0322,1.0329,1.0346,1.0398,1.0401,1.0403,1.0417,1.0422,1.0426,0,0,0,0,0,0,1.0193,1.021,1.0207,1.0242,1.0256,1.0272,1.0289,1.0286,1.0303,1.0301,1.0303,1.0307,1.0337,1.0344,1.0329,1.038,1.0365,1.0369,1.0374,1.0379,1.0382,1.0379,1.0315,0,0,0,0,0,1.02,1.0221,1.0235,1.0264,1.0272,1.0279,1.0291,1.0292,1.0306,1.0312,1.0322,1.0335,1.0354,1.0367,1.0386,1.042,1.0423,1.0435,1.0439,1.0442,1.0445,1.0462,1.0467,1.0412,1.0412,1.0412,0,0,1.0215,1.0227,1.024,1.0267,1.0279,1.0299,1.0284,1.0307,1.0322,1.0315,1.0343,1.0351,1.0366,1.0398,1.0413,1.0406,1.046,1.0445,1.0447,1.0449,1.0465,1.047,1.0474,1.0414,1.0414,1.0414,0,0,1.0253,1.0265,1.029,1.0301,1.0318,1.0322,1.0328,1.0344,1.0348,1.0377,1.0372,1.0389,1.0423,1.0433,1.0443,1.0483,1.0478,1.0489,1.0508,1.0525,1.0529,1.0533,1.0545,1.055,1.0492,1.0492,1.0492,0,1.027,1.0301,1.0304,1.0326,1.0338,1.0332,1.0357,1.0368,1.0389,1.0397,1.0389,1.0429,1.0439,1.0473,1.0482,1.0491,1.0497,1.0487,1.0528,1.0532,1.0536,1.0548,1.0553,1.0493,1.0493,1.0493,1.0493,0,1.032,1.0341,1.036,1.038,1.0394,1.0418,1.0423,1.0436,1.0435,1.044,1.0468,1.048,1.0499,1.0508,1.0507,1.054,1.0535,1.0528,1.0513,1.0542,1.0553,1.0558,1.0495,1.0495,1.0494,1.0494,0,0,1.0368,1.0389,1.0395,1.0404,1.0421,1.0437,1.046,1.0479,1.049,1.0505,1.0523,1.0551,1.0543,1.0554,1.0555,1.057,1.0598,1.056,1.056,1.0565,1.0633,1.0638,1.0644,1.0595,1.0596,1.0597,1.0632,0,1.0406,1.0446,1.0448,1.0485,1.0504,1.0498,1.0518,1.053,1.0535,1.0551,1.0556,1.0575,1.0565,1.0571,1.0586,1.0592,1.0612,1.0589,1.0611,1.0612,1.0606,1.065,1.0655,1.0687,1.0636,1.0637,1.0638,0,1.0456,1.0472,1.051,1.0523,1.0531,1.0548,1.0565,1.0581,1.0594,1.0597,1.0608,1.0607,1.0629,1.0613,1.0643,1.0627,1.0636,1.0641,1.0642,1.0643,1.0626,1.0651,1.0698,1.0702,1.0645,1.0644,1.0644,0,1.0485,1.0516,1.0542,1.055,1.0566,1.0578,1.0586,1.0598,1.0608,1.0623,1.063,1.0647,1.0656,1.0669,1.0671,1.066,1.07,1.0686,1.0702,1.0702,1.071,1.0709,1.0758,1.0718,1.0718,1.0718,1.0717,0,1.0527,1.055,1.0555,1.0572,1.0597,1.0598,1.0623,1.0629,1.064,1.0656,1.0652,1.0668,1.067,1.0686,1.0688,1.0711,1.0716,1.0717,1.0717,1.0717,1.0717,1.0722,1.0719,1.0719,1.0719,1.0718,1.0718,0,1.0564,1.0569,1.0596,1.0609,1.0613,1.063,1.0641,1.0655,1.066,1.068,1.0685,1.0692,1.071,1.0713,1.0735,1.0736,1.0763,1.0762,1.0759,1.0758,1.0774,1.0772,1.0827,1.0833,1.079,1.079,1.0791,0,1.0589,1.0607,1.0621,1.0632,1.0639,1.0657,1.0667,1.0669,1.0681,1.0696,1.0708,1.0726,1.074,1.0769,1.0775,1.0791,1.0789,1.0807,1.0791,1.079,1.0788,1.0786,1.0787,1.081,1.081,1.0811,1.0811,0,1.0634,1.0635,1.0651,1.0667,1.068,1.0693,1.0705,1.0714,1.0717,1.073,1.0748,1.0759,1.078,1.0797,1.0813,1.082,1.0815,1.0816,1.082,1.082,1.0817,1.0817,1.0766,1.0815,1.0814,1.0814,1.0814,1.0814,1.0665,1.0679,1.0691,1.0708,1.0718,1.0729,1.0743,1.0748,1.0764,1.0781,1.0781,1.0801,1.0812,1.0832,1.084,1.0855,1.0849,1.0856,1.0857,1.0858,1.0859,1.0815,1.0858,1.0858,1.0857,1.0857,1.0857,0,1.0708,1.0715,1.0731,1.0748,1.0761,1.0756,1.0769,1.078,1.0797,1.0808,1.0822,1.0842,1.0858,1.0865,1.088,1.0891,1.0889,1.0895,1.0893,1.0895,1.0864,1.0858,1.0896,1.0896,1.0896,1.0896,1.0896,1.0896,1.0732,1.0755,1.0758,1.0785,1.0792,1.0811,1.0818,1.0828,1.0837,1.0859,1.0872,1.0877,1.0886,1.0902,1.0916,1.0918,1.0923,1.0929,1.093,1.0901,1.0897,1.0893,1.0887,1.0931,1.0931,1.0959,1.0959,1.0959]},{"header":{"parameterUnit":"m.s-1","parameterCategory":1,"la1":30.2991,"la2":30.254,"lo1":-89.0895,"lo2":-89.0444,"dy":0.0017,"dx":0.0017,"nx":28,"ny":28,"refTime":"2023-07-20T21:00:00:Z","depth":0,"parameterNumber":3,"parameterNumberName":"V-component_of_WINDS"},"data":[0,0,0,0,0,0,0,0,0,0,0,0,0,0,0,0,0,0,0,0,0,0,0,0,0,0,0,0,0,0,0,0,0,0,0,0,0,0,0,0,0,0,0,0,0,0,0,0,0,0,0,0,0,0,0,0,0,0,6.3957,6.3957,0,6.3984,6.3985,6.3985,6.3898,6.3896,6.3893,6.3891,6.3915,6.3918,6.3921,0,0,0,0,0,0,0,0,0,0,0,0,0,6.3825,6.3828,6.3957,6.3957,6.3958,6.3984,6.3985,6.3985,6.3899,6.3896,6.3893,6.389,6.3914,6.3917,6.3921,0,0,0,0,0,0,0,0,0,0,0,0,0,6.387,6.3829,6.3957,6.3918,6.3915,6.3984,6.3985,6.3985,6.39,6.3896,6.3892,6.3888,6.3912,6.3917,6.3921,6.4028,0,0,6.3935,6.3937,0,0,0,0,0,0,0,0,6.3868,6.3875,6.3923,6.3921,6.3917,6.3934,6.3947,6.3999,6.3901,6.3905,6.3891,6.3886,6.3924,6.3927,6.3941,6.4029,6.403,6.3936,6.3939,6.3941,6.3942,0,0,0,0,0,0,0,6.3865,6.3874,6.3968,6.3924,6.3921,6.3897,6.39,6.3956,6.3936,6.3904,6.3898,6.3903,6.3921,6.3937,6.3941,6.4031,6.3936,6.394,6.3943,6.3944,6.4206,6.421,0,0,0,0,0,0,6.3868,6.3872,6.3967,6.3968,6.3883,6.3903,6.3905,6.3933,6.3935,6.3932,6.3906,6.3899,6.3931,6.3936,6.3941,6.4065,6.3941,6.3945,6.3948,6.4202,6.4207,6.4212,0,0,0,0,0,0,6.3865,6.3877,6.3966,6.3918,6.3928,6.391,6.3941,6.3935,6.395,6.3937,6.3932,6.3926,6.3928,6.3935,6.4007,6.4065,6.3947,6.3951,6.4197,6.4204,6.421,6.4315,0,0,0,0,0,0,6.3862,6.3877,6.3918,6.392,6.3931,6.4033,6.3944,6.3939,6.3959,6.3949,6.3954,6.3951,6.3925,6.4001,6.4012,6.4069,6.3955,6.4192,6.42,6.4208,6.4307,6.4325,6.434,0,0,0,0,0,6.3857,6.3946,6.3921,6.3933,6.3983,6.4036,6.4042,6.4012,6.3964,6.4005,6.3996,6.3951,6.4057,6.4009,6.4021,6.408,6.4188,6.4198,6.4207,6.4299,6.4321,6.4339,0,0,0,0,0,0,6.395,6.3946,6.3917,6.401,6.4025,6.4022,6.4072,6.4037,6.4064,6.4054,6.4014,6.4016,6.4095,6.4095,6.4041,6.4183,6.4114,6.4126,6.418,6.4201,6.4217,6.4215,6.3959,0,0,0,0,0,6.3982,6.4027,6.402,6.4103,6.4111,6.4091,6.4113,6.4089,6.4102,6.4107,6.4103,6.4116,6.4152,6.4176,6.4209,6.4307,6.4305,6.4353,6.437,6.4384,6.4394,6.4444,6.4465,6.4243,6.4243,6.4243,0,0,6.4047,6.405,6.4081,6.4121,6.413,6.4176,6.4097,6.4149,6.4182,6.4114,6.4182,6.418,6.4192,6.4277,6.4314,6.4279,6.4455,6.4396,6.4407,6.441,6.4456,6.4477,6.4496,6.4249,6.4248,6.4247,0,0,6.4189,6.4197,6.4266,6.4276,6.429,6.4275,6.4292,6.4295,6.4291,6.4359,6.4309,6.4347,6.4411,6.4421,6.4434,6.458,6.4538,6.4591,6.4677,6.4727,6.4744,6.4759,6.481,6.4828,6.4602,6.4602,6.4602,0,6.4268,6.4337,6.4305,6.4361,6.4379,6.4321,6.4389,6.44,6.4424,6.4437,6.4398,6.4476,6.448,6.4566,6.4601,6.4615,6.4631,6.459,6.4744,6.4759,6.4773,6.4821,6.484,6.4608,6.4608,6.4607,6.4607,0,6.4432,6.4481,6.4534,6.456,6.4584,6.4646,6.4622,6.465,6.4624,6.4613,6.4682,6.4685,6.4717,6.4735,6.471,6.4818,6.4795,6.4751,6.4681,6.4801,6.4845,6.4863,6.4617,6.4615,6.4613,6.4612,0,0,6.4633,6.464,6.466,6.467,6.4681,6.4717,6.4776,6.4808,6.4832,6.485,6.4897,6.4952,6.4911,6.4926,6.4901,6.4945,6.5058,6.4895,6.4894,6.4924,6.5175,6.5207,6.5229,6.5032,6.5035,6.5038,6.5173,0,6.4771,6.4873,6.4846,6.4946,6.499,6.4935,6.4986,6.4997,6.4989,6.5023,6.5013,6.5052,6.4996,6.5005,6.5045,6.5036,6.5108,6.5026,6.5073,6.5075,6.507,6.5252,6.5286,6.5415,6.5191,6.5194,6.5196,0,6.4947,6.4972,6.5078,6.5081,6.5098,6.5144,6.517,6.5205,6.5216,6.5206,6.5224,6.519,6.5246,6.5177,6.5252,6.5197,6.5214,6.5213,6.5217,6.5219,6.5142,6.5258,6.5455,6.5474,6.5223,6.5221,6.5219,0,6.5081,6.5142,6.5212,6.5223,6.5228,6.5262,6.5265,6.5273,6.5293,6.5316,6.5329,6.5358,6.5373,6.5396,6.537,6.5322,6.5449,6.5378,6.5441,6.5442,6.5469,6.5468,6.5671,6.5484,6.5483,6.5483,6.5482,0,6.5237,6.5303,6.5272,6.5316,6.5387,6.5355,6.5426,6.5423,6.5431,6.5471,6.5426,6.5464,6.5428,6.5464,6.5444,6.5508,6.5516,6.5509,6.5502,6.5512,6.5513,6.5522,6.5512,6.5488,6.5487,6.5486,6.5485,0,6.5398,6.5381,6.5454,6.5453,6.5454,6.5507,6.5506,6.5545,6.5533,6.5585,6.5595,6.5577,6.5616,6.5593,6.5632,6.5619,6.5702,6.5685,6.5699,6.5694,6.5758,6.5752,6.5973,6.5999,6.5797,6.5799,6.58,0,6.5499,6.5549,6.5554,6.5578,6.5585,6.5625,6.5646,6.5616,6.5639,6.5655,6.5692,6.5727,6.5754,6.5818,6.5807,6.5837,6.5818,6.5894,6.5822,6.583,6.5818,6.5815,6.5819,6.5908,6.591,6.5912,6.5914,0,6.5679,6.5667,6.57,6.573,6.5757,6.5778,6.5796,6.5818,6.5788,6.5816,6.5856,6.5877,6.5917,6.5952,6.5977,6.5979,6.5941,6.5937,6.5953,6.5962,6.5968,6.5964,6.5737,6.5931,6.593,6.5928,6.5927,6.5927,6.5811,6.5852,6.5862,6.59,6.591,6.5928,6.5964,6.5958,6.5991,6.6022,6.6002,6.6048,6.6057,6.6087,6.6094,6.6129,6.6098,6.6121,6.6127,6.6133,6.6141,6.5964,6.6133,6.6133,6.6132,6.6132,6.6131,0,6.5987,6.5991,6.6026,6.6053,6.6082,6.6045,6.6063,6.6089,6.6131,6.6143,6.617,6.6215,6.6249,6.6241,6.6271,6.63,6.6284,6.6309,6.6306,6.6307,6.6168,6.615,6.6322,6.6322,6.6322,6.6322,6.6322,6.6322,6.6082,6.6149,6.6139,6.621,6.6213,6.6259,6.6272,6.6287,6.6296,6.6349,6.6377,6.6372,6.6376,6.6406,6.6434,6.6431,6.6444,6.6475,6.6466,6.6335,6.6317,6.6299,6.6282,6.6479,6.6479,6.6601,6.6602,6.6603]}]]